This demonstration page uses our WeatherBlox Daily Observations layout. Learn more.

Left ArrowRight Arrow

41.86663, -103.66717

Hourly Observations for September 6, 2018

Temp ( °F °C ) Dew Point ( °F °C ) Humidity (%) Winds ( mph kmh ) Pressure ( in mb ) Visibility ( mi km ) Precip ( " mm )
12:53 am 00:53 Clear 59 15 59 15 100 100 ESE 9 15 30.26 1025 10 16 N/A
1:41 am 01:41 Mostly Cloudy 59 15 59 15 100 100 ESE 9 15 30.27 1025 10 16 N/A
1:53 am 01:53 Partly Cloudy 59 15 59 15 100 100 ESE 9 15 30.24 1024 10 16 N/A
2:48 am 02:48 Mostly Cloudy 59 15 59 15 100 100 ESE 10 17 30.21 1023 8 13 N/A
2:53 am 02:53 Mostly Cloudy 59 15 59 15 100 100 SE 8 13 30.23 1024 8 13 N/A
3:07 am 03:07 Cloudy 61 16.1 61 16.1 100 100 SE 10 17 30.21 1023 10 16 N/A
3:53 am 03:53 Partly Cloudy 60 15.6 60 15.6 100 100 SE 13 20 30.22 1023 10 16 N/A
4:53 am 04:53 Clear 60 15.6 60 15.6 100 100 SE 9 15 30.22 1023 10 16 N/A
5:45 am 05:45 Mostly Cloudy 59 15 59 15 100 100 undefined N/A 30.21 1023 10 16 N/A
5:53 am 05:53 Mostly Cloudy 60 15.6 60 15.6 100 100 undefined N/A 30.22 1024 10 16 N/A
6:53 am 06:53 Cloudy 62 16.7 61 16.1 96 96 ESE 6 9 30.24 1024 10 16 N/A
7:53 am 07:53 Cloudy 64 17.8 60 15.6 87 87 SE 12 19 30.26 1025 10 16 N/A
8:53 am 08:53 Cloudy 66 18.9 59 15 78 78 SSE 13 20 30.26 1025 10 16 N/A
9:38 am 09:38 Partly Cloudy 66 19 59 15 78 78 SE 12 19 30.21 1023 10 16 N/A
9:53 am 09:53 Partly Cloudy 67 19.4 59 15 76 76 SSE 12 19 30.27 1025 10 16 N/A
10:01 am 10:01 Mostly Cloudy 68 20 59 15 73 73 S 12 19 30.18 1022 10 16 N/A
10:53 am 10:53 Cloudy 68 20 59 15 73 73 SE 12 19 30.27 1025 10 16 N/A
11:53 am 11:53 Partly Cloudy 68 20 58 14.4 70 70 SSE 15 24 30.27 1025 10 16 N/A
12:53 pm 12:53 Mostly Cloudy 70 21.1 58 14.4 66 66 SSE 15 24 30.25 1024 10 16 N/A
1:53 pm 13:53 Mostly Cloudy 73 22.8 58 14.4 59 59 SSE 14 22 30.23 1024 10 16 N/A
2:53 pm 14:53 Cloudy 74 23.3 59 15 60 60 S 12 19 30.20 1023 10 16 N/A
3:53 pm 15:53 Mostly Sunny 74 23.3 58 14.4 57 57 SSE 14 22 30.17 1022 10 16 N/A
4:53 pm 16:53 Mostly Sunny 75 23.9 57 13.9 54 54 SSE 12 19 30.15 1021 10 16 N/A
5:53 pm 17:53 Mostly Sunny 75 23.9 57 13.9 54 54 SE 13 20 30.14 1021 10 16 N/A
6:53 pm 18:53 Sunny 72 22.2 57 13.9 59 59 ESE 14 22 30.14 1021 10 16 N/A
7:53 pm 19:53 Clear 66 18.9 57 13.9 73 73 ESE 8 13 30.16 1021 10 16 N/A
8:53 pm 20:53 Clear 61 16.1 57 13.9 87 87 ESE 7 11 30.19 1023 10 16 N/A
9:53 pm 21:53 Clear 60 15.6 56 13.3 86 86 ESE 6 9 30.20 1023 10 16 N/A
10:53 pm 22:53 Clear 58 14.4 56 13.3 93 93 ESE 9 15 30.21 1023 10 16 N/A
11:53 pm 23:53 Clear 56 13.3 55 12.8 97 97 ESE 7 11 30.21 1023 10 16 N/A

Powered by AerisWeather